Regional Weather Roundup
Issued by NWS Columbia, SC

Home | Current Version | Previous Version | Text Only | Print | Product List | Glossary On
Versions: 1 2 3 4 5 6 7 8 9 10 11 12 13 14 15 16 17 18 19 20 21 22 23 24 25 26 27 28
000
ASUS42 KCAE 210010
RWRCAE
REGIONAL WEATHER ROUNDUP
NATIONAL WEATHER SERVICE COLUMBIA SC
800 PM EDT SUN APR 20 2014

NOTE: "FAIR" INDICATES FEW OR NO CLOUDS BELOW 12,000 FEET WITH NO
SIGNIFICANT WEATHER AND/OR OBSTRUCTIONS TO VISIBILITY.

NOT ALL STATIONS ARE QUALITY CONTROLLED BY THE NATIONAL
WEATHER SERVICE. USE DATA WITH CAUTION...ESPECIALLY
DEWPOINT OBSERVATIONS.

SCZ001>056-GAZ040-063>065-077-210100-
...UPSTATE SOUTH CAROLINA...

CITY           SKY/WX    TMP DP  RH WIND       PRES   REMARKS
ANDERSON       CLEAR     64  34  32 E7        30.16S
6HR MIN TEMP:  64; 6HR MAX TEMP:  73;

LIBERTY        FAIR      67  50  55 MISG      30.16S
6HR MIN TEMP:  48; 6HR MAX TEMP:  73;

SPARTANBURG    FAIR      68  34  28 NE5       30.17S
CLEMSON        CLEAR     67  32  27 VRB3      30.17S
6HR MIN TEMP:  67; 6HR MAX TEMP:  75;

GREENVILLE     CLEAR     66  31  27 E8        30.18S
6HR MIN TEMP:  66; 6HR MAX TEMP:  72;

GREENWOOD      CLEAR     66  36  32 NE5       30.17S
6HR MIN TEMP:  66; 6HR MAX TEMP:  74;

GREER          CLEAR     64  34  32 E8        30.16F
6HR MIN TEMP:  64; 6HR MAX TEMP:  71;

ROCK HILL      CLOUDY    66  33  29 NE3       30.18S
6HR MIN TEMP:  65; 6HR MAX TEMP:  71;

CHESTER        FAIR      64  41  42 NE5       30.18S


...CENTRAL SOUTH CAROLINA...

CITY           SKY/WX    TMP DP  RH WIND       PRES   REMARKS
COLUMBIA APT   CLOUDY    67  41  38 NE6       30.15S
6HR MIN TEMP:  67; 6HR MAX TEMP:  71;

COLUMBIA OWENS CLOUDY    67  38  34 VRB5      30.16S
6HR MIN TEMP:  67; 6HR MAX TEMP:  71;

DARLINGTON     CLOUDY    63  46  55 NE6       30.16R
6HR MIN TEMP:  63; 6HR MAX TEMP:  66;

FLORENCE       CLOUDY    64  49  57 NE14      30.13R
6HR MIN TEMP:  61; 6HR MAX TEMP:  68;

MCENTIRE ANGB  CLOUDY    64  42  45 N5        30.15R
6HR MIN TEMP:  64; 6HR MAX TEMP:  69;

ORANGEBURG     CLOUDY    65  45  48 N10       30.14R
6HR MIN TEMP:  64; 6HR MAX TEMP:  69;

SUMTER SHAW    CLOUDY    64  44  48 N8        30.13R
6HR MIN TEMP:  61; 6HR MAX TEMP:  68;

NEWBERRY       MOCLDY    64  43  45 NE3       30.19S
AIKEN          CLOUDY    64  46  52 NE7       30.18S
BARNWELL       CLOUDY    66  46  48 NE6       30.15R
CAMDEN         CLOUDY    64  45  48 N6        30.17R
LANCASTER      CLOUDY    63  41  45 CALM      30.17F
WINNSBORO      MOCLDY    63  41  45 N5        30.16S


...EASTERN AND COASTAL SOUTH CAROLINA...

CITY           SKY/WX    TMP DP  RH WIND       PRES   REMARKS
MYRTLE BEACH   CLOUDY    61  52  72 N17G31    30.06S
N MYRTLE BCH   CLOUDY    60  51  72 N17G30    30.08R
6HR MIN TEMP:  59; 6HR MAX TEMP:  62; 6HR PCP: TRACE;

CONWAY         CLOUDY    61  52  72 N14G25    30.09S
MARION         CLOUDY    61  50  67 N14G25    30.13S
HARTSVILLE     CLOUDY    64  45  48 N5        30.16R
FLORENCE       CLOUDY    64  49  57 NE14      30.13R
6HR MIN TEMP:  61; 6HR MAX TEMP:  68;

DARLINGTON     CLOUDY    63  46  55 NE6       30.16R
6HR MIN TEMP:  63; 6HR MAX TEMP:  66;

CHARLESTON APT CLOUDY    65  51  60 N12       30.09R
6HR MIN TEMP:  65; 6HR MAX TEMP:  69;

MOUNT PLEASANT CLOUDY   N/A N/A N/A N7        30.07S
WALTERBORO     CLOUDY    63  52  67 N5        30.12R
BEAUFORT       CLOUDY    65  50  58 NE13G20   30.11R
6HR MIN TEMP:  65; 6HR MAX TEMP:  70;



...EASTERN GEORGIA...

CITY           SKY/WX    TMP DP  RH WIND       PRES   REMARKS
AUGUSTA BUSH F CLOUDY    66  43  43 NE8       30.14S
6HR MIN TEMP:  66; 6HR MAX TEMP:  74;

AUGUSTA DANIEL CLOUDY    69  41  36 NE7       30.15S
6HR MIN TEMP:  69; 6HR MAX TEMP:  74;

THOMSON        CLOUDY    67  48  50 NE5       30.19R
6HR MIN TEMP:  67; 6HR MAX TEMP:  72;

WASHINGTON     FAIR      64  41  42 NE5       30.15S
CLAXTON        CLOUDY    68  55  64 NE9G16    30.12R
SYLVANIA       CLOUDY    65  54  66 CALM      30.14R
6HR MIN TEMP:  65; 6HR MAX TEMP:  71;

STATESBORO     CLOUDY    64  48  56 NE3       30.13R
6HR MIN TEMP:  64; 6HR MAX TEMP:  71;

SAVANNAH       MOCLDY    65  51  60 N10       30.12R
6HR MIN TEMP:  65; 6HR MAX TEMP:  73;



...SOUTHERN NORTH CAROLINA...

CITY           SKY/WX    TMP DP  RH WIND       PRES   REMARKS
CHARLOTTE      PTCLDY    65  32  29 NE8       30.19S
6HR MIN TEMP:  65; 6HR MAX TEMP:  71;

MONROE         CLOUDY    63  38  39 NE7       30.17S
6HR MIN TEMP:  63; 6HR MAX TEMP:  70;

WADESBORO      CLOUDY    65  41  41 N7        30.17R
6HR MIN TEMP:  65; 6HR MAX TEMP:  69;

ROCKINGHAM       N/A     65  46  49 NE5       30.16R
6HR MIN TEMP:  64; 6HR MAX TEMP:  67;

RUTHERFORDTON  CLEAR     65  32  29 E3        30.19S
6HR MIN TEMP:  65; 6HR MAX TEMP:  72;

ASHEVILLE      CLEAR     64  28  25 VRB5      30.20R
6HR MIN TEMP:  64; 6HR MAX TEMP:  70;


$$



USA.gov is the U.S. government's official web portal to all federal, state and local government web resources and services.